[[{"header":{"parameterUnit":"m.s-1","parameterCategory":1,"la1":30.2991,"la2":30.254,"lo1":-89.0895,"lo2":-89.0444,"dy":0.0017,"dx":0.0017,"nx":28,"ny":28,"refTime":"2024-09-03T03:00:00:Z","depth":0,"parameterNumber":2,"parameterNumberName":"U-component_of_WINDS"},"data":[0,0,0,0,0,0,0,0,0,0,0,0,0,0,0,0,0,0,0,0,0,0,0,0,0,0,0,0,0,0,0,0,0,0,0,0,0,0,0,0,0,0,0,0,0,0,0,0,0,0,0,0,0,0,0,0,0,0,-3.304,-3.3039,0,-3.3034,-3.3034,-3.3034,-3.2959,-3.2957,-3.2955,-3.2953,-3.295,-3.2951,-3.2953,0,0,0,0,0,0,0,0,0,0,0,0,0,-3.2988,-3.2989,-3.304,-3.3039,-3.3039,-3.3034,-3.3034,-3.3034,-3.2959,-3.2957,-3.2955,-3.2953,-3.2949,-3.2951,-3.2953,0,0,0,0,0,0,0,0,0,0,0,0,0,-3.2999,-3.299,-3.304,-3.3002,-3.2998,-3.3034,-3.3034,-3.3034,-3.296,-3.2957,-3.2954,-3.2952,-3.2948,-3.2951,-3.2953,-3.3025,0,0,-3.2961,-3.2962,0,0,0,0,0,0,0,0,-3.2999,-3.3001,-3.3007,-3.3004,-3.3,-3.2994,-3.3014,-3.3031,-3.2961,-3.2974,-3.2953,-3.295,-3.2967,-3.2968,-3.2973,-3.3025,-3.3025,-3.2961,-3.2963,-3.2964,-3.2964,0,0,0,0,0,0,0,-3.2998,-3.3001,-3.3037,-3.3007,-3.3003,-3.2986,-3.2984,-3.3017,-3.2987,-3.2973,-3.2968,-3.2968,-3.2964,-3.2971,-3.2972,-3.3025,-3.2961,-3.2963,-3.2965,-3.2966,-3.3138,-3.3141,0,0,0,0,0,0,-3.3002,-3.3001,-3.3037,-3.3037,-3.2993,-3.2989,-3.2987,-3.2999,-3.2986,-3.2981,-3.297,-3.2964,-3.2968,-3.2969,-3.2972,-3.3057,-3.2964,-3.2966,-3.2967,-3.3135,-3.3139,-3.3142,0,0,0,0,0,0,-3.3002,-3.3006,-3.3038,-3.3018,-3.302,-3.2993,-3.3007,-3.3001,-3.3007,-3.2984,-3.2978,-3.2982,-3.2966,-3.2968,-3.3013,-3.3055,-3.2967,-3.2969,-3.3131,-3.3136,-3.314,-3.3226,0,0,0,0,0,0,-3.3,-3.3006,-3.3033,-3.3019,-3.3022,-3.3079,-3.3009,-3.3002,-3.3011,-3.3003,-3.2994,-3.2989,-3.2964,-3.301,-3.3015,-3.3057,-3.2971,-3.3127,-3.3133,-3.3139,-3.322,-3.3233,-3.3245,0,0,0,0,0,-3.2999,-3.3058,-3.3035,-3.304,-3.3054,-3.3081,-3.3083,-3.3051,-3.3015,-3.3042,-3.3027,-3.299,-3.305,-3.3015,-3.3021,-3.3064,-3.3124,-3.3132,-3.3138,-3.3214,-3.3231,-3.3245,0,0,0,0,0,0,-3.3078,-3.3055,-3.303,-3.3085,-3.3086,-3.3068,-3.3101,-3.307,-3.3081,-3.3074,-3.3035,-3.3033,-3.3084,-3.3078,-3.304,-3.3134,-3.3081,-3.3089,-3.3136,-3.3152,-3.3164,-3.3165,-3.2973,0,0,0,0,0,-3.3102,-3.3125,-3.3104,-3.3155,-3.3157,-3.3129,-3.314,-3.3116,-3.3115,-3.3115,-3.3103,-3.3105,-3.3124,-3.3137,-3.3153,-3.3218,-3.3216,-3.3251,-3.3263,-3.3274,-3.3282,-3.3317,-3.3333,-3.3165,-3.3165,-3.3164,0,0,-3.3152,-3.3142,-3.3159,-3.3171,-3.3168,-3.3194,-3.313,-3.3159,-3.3179,-3.3119,-3.3161,-3.3153,-3.3151,-3.3207,-3.3231,-3.3203,-3.3328,-3.3283,-3.3291,-3.3294,-3.3326,-3.3342,-3.3356,-3.3169,-3.3168,-3.3168,0,0,-3.3256,-3.3251,-3.3294,-3.3292,-3.3289,-3.327,-3.3281,-3.3268,-3.3261,-3.3302,-3.3258,-3.328,-3.3314,-3.3315,-3.332,-3.3426,-3.3392,-3.3432,-3.3499,-3.3534,-3.3547,-3.3559,-3.3598,-3.3612,-3.344,-3.344,-3.344,0,-3.3319,-3.3355,-3.332,-3.3353,-3.336,-3.3306,-3.335,-3.3351,-3.3354,-3.336,-3.3329,-3.3371,-3.3366,-3.3421,-3.3447,-3.3453,-3.3464,-3.3433,-3.3548,-3.3559,-3.357,-3.3606,-3.3621,-3.3445,-3.3444,-3.3444,-3.3443,0,-3.3433,-3.3459,-3.3494,-3.3498,-3.3509,-3.3547,-3.3518,-3.3533,-3.3508,-3.3493,-3.3537,-3.3529,-3.3543,-3.3554,-3.353,-3.3607,-3.3591,-3.3554,-3.35,-3.3591,-3.3625,-3.3639,-3.3452,-3.345,-3.3449,-3.3448,0,0,-3.3588,-3.3572,-3.3585,-3.3587,-3.358,-3.3599,-3.3635,-3.3649,-3.3664,-3.3667,-3.3698,-3.3727,-3.3694,-3.37,-3.3675,-3.3706,-3.3792,-3.3666,-3.3665,-3.3691,-3.3878,-3.3906,-3.3923,-3.3769,-3.3771,-3.3773,-3.3879,0,-3.369,-3.375,-3.3719,-3.3784,-3.3809,-3.3759,-3.379,-3.379,-3.3777,-3.3796,-3.3782,-3.3804,-3.3758,-3.3761,-3.3789,-3.3776,-3.3829,-3.3767,-3.3798,-3.38,-3.3802,-3.3941,-3.397,-3.407,-3.3891,-3.3894,-3.3895,0,-3.3817,-3.3826,-3.3893,-3.3882,-3.3891,-3.392,-3.3931,-3.3949,-3.3948,-3.3937,-3.3944,-3.3912,-3.3948,-3.3894,-3.3943,-3.3902,-3.3913,-3.3908,-3.3911,-3.3914,-3.3854,-3.3949,-3.4101,-3.4116,-3.3916,-3.3914,-3.3913,0,-3.3925,-3.3954,-3.3998,-3.4,-3.3988,-3.401,-3.4007,-3.4002,-3.4013,-3.4022,-3.4029,-3.4042,-3.405,-3.4062,-3.4036,-3.3998,-3.409,-3.4033,-3.4082,-3.4083,-3.4105,-3.4104,-3.4262,-3.411,-3.4109,-3.4109,-3.4109,0,-3.4043,-3.4086,-3.4046,-3.4074,-3.4122,-3.4086,-3.4134,-3.4125,-3.4122,-3.4147,-3.4105,-3.413,-3.4093,-3.4114,-3.4094,-3.4139,-3.4142,-3.4135,-3.413,-3.414,-3.4141,-3.4147,-3.4141,-3.4113,-3.4112,-3.4111,-3.4111,0,-3.4172,-3.4147,-3.4192,-3.4177,-3.4174,-3.421,-3.4198,-3.4223,-3.4207,-3.424,-3.4246,-3.4221,-3.4244,-3.4219,-3.424,-3.4226,-3.4288,-3.4271,-3.4289,-3.4284,-3.4336,-3.4332,-3.4505,-3.4527,-3.4359,-3.4361,-3.4362,0,-3.4249,-3.4282,-3.427,-3.4284,-3.4283,-3.4305,-3.4316,-3.4282,-3.4295,-3.4297,-3.4322,-3.4342,-3.4356,-3.4396,-3.438,-3.4397,-3.4381,-3.4441,-3.4384,-3.4394,-3.4384,-3.4383,-3.4387,-3.4453,-3.4455,-3.4457,-3.4458,0,-3.439,-3.4376,-3.4393,-3.4406,-3.4419,-3.4428,-3.4433,-3.4447,-3.4412,-3.4429,-3.4452,-3.4463,-3.4485,-3.4505,-3.4517,-3.4514,-3.4482,-3.4476,-3.4489,-3.45,-3.451,-3.4507,-3.4322,-3.4472,-3.4471,-3.447,-3.4469,-3.4469,-3.4497,-3.4524,-3.452,-3.454,-3.4541,-3.4547,-3.457,-3.4557,-3.4576,-3.4591,-3.4569,-3.4599,-3.4598,-3.4611,-3.4611,-3.4635,-3.4609,-3.4627,-3.4632,-3.4638,-3.4646,-3.4505,-3.4636,-3.4636,-3.4636,-3.4635,-3.4635,0,-3.4637,-3.4632,-3.4651,-3.466,-3.4676,-3.4642,-3.4646,-3.4662,-3.4689,-3.469,-3.4705,-3.4732,-3.4752,-3.4738,-3.4755,-3.4777,-3.4762,-3.4783,-3.4781,-3.4782,-3.4667,-3.4655,-3.4794,-3.4794,-3.4794,-3.4794,-3.4794,-3.4794,-3.4712,-3.4756,-3.4742,-3.4786,-3.4781,-3.4809,-3.4815,-3.482,-3.4821,-3.4854,-3.487,-3.4861,-3.4856,-3.4873,-3.489,-3.4886,-3.4895,-3.4921,-3.4912,-3.4805,-3.479,-3.4775,-3.4763,-3.4923,-3.4923,-3.5025,-3.5026,-3.5026]},{"header":{"parameterUnit":"m.s-1","parameterCategory":1,"la1":30.2991,"la2":30.254,"lo1":-89.0895,"lo2":-89.0444,"dy":0.0017,"dx":0.0017,"nx":28,"ny":28,"refTime":"2024-09-03T03:00:00:Z","depth":0,"parameterNumber":3,"parameterNumberName":"V-component_of_WINDS"},"data":[0,0,0,0,0,0,0,0,0,0,0,0,0,0,0,0,0,0,0,0,0,0,0,0,0,0,0,0,0,0,0,0,0,0,0,0,0,0,0,0,0,0,0,0,0,0,0,0,0,0,0,0,0,0,0,0,0,0,-2.057,-2.0569,0,-2.05,-2.0499,-2.0498,-2.0439,-2.0439,-2.0438,-2.0437,-2.0362,-2.0361,-2.0359,0,0,0,0,0,0,0,0,0,0,0,0,0,-2.0649,-2.0648,-2.057,-2.0569,-2.0568,-2.05,-2.0499,-2.0498,-2.0439,-2.0439,-2.0438,-2.0437,-2.0362,-2.0361,-2.0359,0,0,0,0,0,0,0,0,0,0,0,0,0,-2.0601,-2.0648,-2.057,-2.0531,-2.0527,-2.05,-2.0499,-2.0498,-2.044,-2.0439,-2.0438,-2.0437,-2.0363,-2.0361,-2.0359,-2.0364,0,0,-2.0352,-2.0351,0,0,0,0,0,0,0,0,-2.0603,-2.0598,-2.0537,-2.0533,-2.0529,-2.0477,-2.0499,-2.0453,-2.044,-2.0473,-2.0437,-2.0436,-2.0401,-2.0396,-2.0384,-2.0361,-2.0358,-2.0352,-2.0351,-2.035,-2.0349,0,0,0,0,0,0,0,-2.0607,-2.06,-2.0542,-2.0537,-2.0531,-2.0515,-2.0508,-2.049,-2.0443,-2.047,-2.0465,-2.0458,-2.0398,-2.0387,-2.0382,-2.0356,-2.0352,-2.035,-2.0349,-2.0348,-2.0333,-2.0334,0,0,0,0,0,0,-2.0617,-2.0604,-2.0544,-2.054,-2.0565,-2.0515,-2.0506,-2.0495,-2.0443,-2.0434,-2.0459,-2.0455,-2.0391,-2.0385,-2.0379,-2.0382,-2.035,-2.0348,-2.0347,-2.0332,-2.0333,-2.0334,0,0,0,0,0,0,-2.0619,-2.0612,-2.0547,-2.0571,-2.0561,-2.0514,-2.0502,-2.0494,-2.0482,-2.0435,-2.0425,-2.0456,-2.039,-2.0382,-2.0369,-2.0379,-2.0347,-2.0345,-2.0331,-2.0333,-2.0334,-2.0388,0,0,0,0,0,0,-2.0621,-2.0613,-2.0616,-2.0571,-2.056,-2.0539,-2.0503,-2.0493,-2.0479,-2.0474,-2.0429,-2.0421,-2.0388,-2.0372,-2.0367,-2.0375,-2.0343,-2.033,-2.0332,-2.0333,-2.0385,-2.0391,-2.0396,0,0,0,0,0,-2.0624,-2.0633,-2.0616,-2.0609,-2.0562,-2.054,-2.0533,-2.0497,-2.048,-2.0482,-2.0451,-2.0422,-2.0379,-2.0371,-2.0364,-2.0373,-2.0329,-2.0331,-2.0333,-2.0383,-2.039,-2.0396,0,0,0,0,0,0,-2.0679,-2.0627,-2.0607,-2.0602,-2.0576,-2.053,-2.0531,-2.0505,-2.0482,-2.0479,-2.0433,-2.0423,-2.0414,-2.0392,-2.0385,-2.0375,-2.035,-2.0351,-2.039,-2.0397,-2.0402,-2.0408,-2.0342,0,0,0,0,0,-2.0691,-2.0678,-2.0632,-2.0632,-2.062,-2.0578,-2.0566,-2.054,-2.0511,-2.0499,-2.0468,-2.0439,-2.0419,-2.0406,-2.0385,-2.0382,-2.0371,-2.0384,-2.0389,-2.0394,-2.0395,-2.0392,-2.0397,-2.0341,-2.0341,-2.0341,0,0,-2.0714,-2.0684,-2.0678,-2.0642,-2.0619,-2.0605,-2.0569,-2.0556,-2.0545,-2.0497,-2.0483,-2.0458,-2.0423,-2.0415,-2.041,-2.0396,-2.0408,-2.0397,-2.0401,-2.0399,-2.0394,-2.04,-2.0404,-2.0342,-2.0342,-2.0342,0,0,-2.075,-2.0726,-2.0724,-2.0701,-2.0667,-2.0639,-2.0638,-2.0596,-2.0578,-2.0563,-2.0527,-2.0512,-2.0479,-2.0455,-2.0439,-2.0466,-2.0439,-2.046,-2.0489,-2.0486,-2.049,-2.0494,-2.0504,-2.0508,-2.0462,-2.0462,-2.0462,0,-2.0784,-2.0763,-2.0725,-2.0715,-2.07,-2.0656,-2.0653,-2.0632,-2.0592,-2.0582,-2.0567,-2.0524,-2.0497,-2.0483,-2.049,-2.0478,-2.0475,-2.0465,-2.0493,-2.0496,-2.0499,-2.0508,-2.0512,-2.0464,-2.0464,-2.0464,-2.0464,0,-2.0806,-2.0792,-2.0794,-2.0758,-2.0742,-2.0735,-2.0695,-2.0684,-2.0659,-2.0633,-2.0617,-2.0584,-2.0555,-2.055,-2.0525,-2.0531,-2.0524,-2.0502,-2.0476,-2.0508,-2.0516,-2.0519,-2.0469,-2.0468,-2.0467,-2.0466,0,0,-2.0875,-2.0818,-2.0819,-2.0802,-2.0761,-2.0749,-2.0739,-2.0712,-2.0704,-2.0677,-2.0668,-2.064,-2.062,-2.0601,-2.0573,-2.057,-2.0594,-2.0548,-2.0547,-2.0558,-2.0599,-2.0616,-2.0621,-2.0576,-2.0576,-2.0576,-2.0602,0,-2.0904,-2.0887,-2.0852,-2.0845,-2.0831,-2.079,-2.0781,-2.0754,-2.0729,-2.0713,-2.0684,-2.0665,-2.0639,-2.0628,-2.0623,-2.0592,-2.0602,-2.059,-2.0565,-2.0565,-2.0576,-2.0624,-2.0643,-2.0668,-2.0605,-2.0605,-2.0605,0,-2.0937,-2.0914,-2.0906,-2.0866,-2.0859,-2.0852,-2.0825,-2.081,-2.0778,-2.076,-2.074,-2.0709,-2.0696,-2.0672,-2.0652,-2.0645,-2.0633,-2.0616,-2.0616,-2.0613,-2.0588,-2.0622,-2.0676,-2.068,-2.0609,-2.0609,-2.0609,0,-2.0988,-2.0956,-2.0947,-2.0933,-2.0886,-2.0882,-2.0862,-2.083,-2.0816,-2.0791,-2.0781,-2.0755,-2.074,-2.072,-2.0683,-2.0669,-2.0667,-2.064,-2.0651,-2.0652,-2.0652,-2.0653,-2.0705,-2.0644,-2.0644,-2.0644,-2.0644,0,-2.1025,-2.1022,-2.0969,-2.0964,-2.0958,-2.0918,-2.0913,-2.0889,-2.086,-2.0848,-2.081,-2.08,-2.0751,-2.0734,-2.0705,-2.0693,-2.0687,-2.0671,-2.0663,-2.0674,-2.0677,-2.0666,-2.0663,-2.0645,-2.0645,-2.0645,-2.0645,0,-2.1082,-2.1047,-2.1034,-2.0991,-2.0979,-2.0978,-2.0939,-2.0932,-2.0904,-2.089,-2.0884,-2.084,-2.0818,-2.0779,-2.0746,-2.0726,-2.072,-2.0707,-2.0732,-2.0727,-2.074,-2.0739,-2.0787,-2.0791,-2.0728,-2.0729,-2.0729,0,-2.1108,-2.1105,-2.1061,-2.1051,-2.1033,-2.1017,-2.1003,-2.0962,-2.0949,-2.0912,-2.0909,-2.0885,-2.0863,-2.0831,-2.0795,-2.0769,-2.0755,-2.0773,-2.0751,-2.0762,-2.0755,-2.0756,-2.0755,-2.0778,-2.0779,-2.078,-2.0781,0,-2.1158,-2.1141,-2.1123,-2.1098,-2.1083,-2.1061,-2.1037,-2.1031,-2.0985,-2.0971,-2.095,-2.0933,-2.09,-2.0876,-2.0845,-2.0823,-2.0794,-2.0788,-2.0789,-2.0801,-2.0816,-2.0808,-2.0746,-2.0787,-2.0787,-2.0786,-2.0786,-2.0785,-2.12,-2.1195,-2.1164,-2.1145,-2.1123,-2.1102,-2.1093,-2.1064,-2.1046,-2.1017,-2.0993,-2.0974,-2.0941,-2.0897,-2.0876,-2.0859,-2.0845,-2.0847,-2.0847,-2.0848,-2.0853,-2.0818,-2.0853,-2.0853,-2.0853,-2.0852,-2.0852,0,-2.1249,-2.1227,-2.1209,-2.1178,-2.1163,-2.1138,-2.111,-2.1099,-2.1082,-2.1055,-2.1035,-2.101,-2.0986,-2.0949,-2.0922,-2.0916,-2.0902,-2.091,-2.091,-2.0905,-2.0867,-2.0869,-2.0922,-2.0922,-2.0922,-2.0922,-2.0922,-2.0922,-2.1272,-2.1263,-2.1242,-2.1221,-2.1198,-2.1179,-2.1166,-2.1146,-2.1124,-2.1098,-2.1079,-2.1055,-2.1023,-2.0994,-2.0971,-2.096,-2.0952,-2.0965,-2.095,-2.0915,-2.0908,-2.0902,-2.0904,-2.0963,-2.0963,-2.099,-2.099,-2.0991]}]]